When you browse on this site, cookies collect data to enhance your experience and personalize the content and advertising you see.
Visit our Privacy Policy to learn more. By continuing to use the site, you agree to this use of cookies and data.
  • En España
  • Lista de países
  • Para 7 días
  • Temperatura del agua
  • Mapa Satelital
  • El tiempo en el mapa
  • Informadores
  • user-avatar
    Iniciar sesión

    Tiempo cada hora Bolshoy Shokshem

    Hoy, 21 Noviembre, Miércoles

    Tiempo Temperatura Precipitaciones Viento Presión Humedad
    00:00 -8°C° 0 mm 5 mps 743 mmHg 87%
    01:00 -8°C° 0 mm 5 mps 742 mmHg 87%
    02:00 -7°C° 0 mm 5 mps 742 mmHg 86%
    03:00 -8°C° 0 mm 5 mps 741 mmHg 86%
    04:00 -7°C° 0.1 mm 5 mps 741 mmHg 87%
    05:00 -7°C° 0.1 mm 5 mps 740 mmHg 87%
    06:00 -7°C° 0.1 mm 5 mps 740 mmHg 88%
    07:00 -6°C° 0.1 mm 6 mps 739 mmHg 87%
    08:00 -6°C° 0.1 mm 6 mps 739 mmHg 87%
    09:00 -5°C° 0 mm 6 mps 739 mmHg 87%
    10:00 -5°C° 0.2 mm 6 mps 739 mmHg 85%
    11:00 -4°C° 0.2 mm 7 mps 739 mmHg 83%
    12:00 -4°C° 0.2 mm 7 mps 739 mmHg 80%
    13:00 -6°C° 0 mm 7 mps 739 mmHg 78%
    14:00 -6°C° 0 mm 6 mps 739 mmHg 76%
    15:00 -6°C° 0 mm 6 mps 739 mmHg 74%
    16:00 -8°C° 0 mm 6 mps 740 mmHg 75%
    17:00 -8°C° 0 mm 5 mps 740 mmHg 76%
    18:00 -8°C° 0 mm 5 mps 740 mmHg 78%
    19:00 -10°C° 0 mm 5 mps 740 mmHg 80%
    20:00 -10°C° 0 mm 5 mps 740 mmHg 82%
    21:00 -10°C° 0 mm 5 mps 740 mmHg 84%
    22:00 -10°C° 0 mm 5 mps 740 mmHg 85%
    23:00 -10°C° 0 mm 5 mps 740 mmHg 86%

    Mañana, 22 Noviembre, Jueves

    Tiempo Temperatura Precipitaciones Viento Presión Humedad
    00:00 -10°C° 0 mm 5 mps 739 mmHg 87%
    01:00 -10°C° 0 mm 5 mps 739 mmHg 88%
    02:00 -10°C° 0 mm 5 mps 739 mmHg 89%
    03:00 -10°C° 0 mm 5 mps 738 mmHg 91%
    04:00 -10°C° 0 mm 5 mps 738 mmHg 91%
    05:00 -10°C° 0 mm 5 mps 737 mmHg 90%
    06:00 -10°C° 0 mm 5 mps 737 mmHg 90%
    07:00 -9°C° 0.2 mm 6 mps 736 mmHg 90%
    08:00 -9°C° 0.2 mm 6 mps 735 mmHg 90%
    09:00 -8°C° 0.2 mm 6 mps 734 mmHg 90%
    10:00 -8°C° 0.5 mm 7 mps 733 mmHg 89%
    11:00 -8°C° 0.5 mm 7 mps 733 mmHg 88%
    12:00 -7°C° 0.5 mm 8 mps 732 mmHg 87%
    13:00 -7°C° 0.2 mm 7 mps 731 mmHg 87%
    14:00 -6°C° 0.2 mm 6 mps 730 mmHg 87%
    15:00 -6°C° 0.2 mm 6 mps 730 mmHg 87%
    16:00 -6°C° 0.3 mm 6 mps 729 mmHg 89%
    17:00 -6°C° 0.3 mm 5 mps 728 mmHg 91%
    18:00 -6°C° 0.3 mm 5 mps 728 mmHg 92%
    19:00 -6°C° 0.6 mm 6 mps 728 mmHg 89%
    20:00 -8°C° 0.6 mm 7 mps 728 mmHg 86%
    21:00 -8°C° 0.6 mm 7 mps 728 mmHg 83%
    22:00 -9°C° 0 mm 7 mps 728 mmHg 82%
    23:00 -10°C° 0 mm 6 mps 729 mmHg 82%

    Pasado mañana, 23 Noviembre, Viernes

    Tiempo Temperatura Precipitaciones Viento Presión Humedad
    00:00 -11°C° 0 mm 5 mps 729 mmHg 82%
    01:00 -12°C° 0.1 mm 5 mps 730 mmHg 83%
    02:00 -12°C° 0.1 mm 5 mps 731 mmHg 84%
    03:00 -12°C° 0.1 mm 5 mps 732 mmHg 86%
    04:00 -12°C° 0 mm 5 mps 733 mmHg 85%
    05:00 -13°C° 0 mm 5 mps 734 mmHg 84%
    06:00 -14°C° 0 mm 6 mps 734 mmHg 82%
    07:00 -14°C° 0 mm 6 mps 735 mmHg 82%
    08:00 -14°C° 0 mm 6 mps 736 mmHg 82%
    09:00 -14°C° 0 mm 6 mps 737 mmHg 82%
    10:00 -14°C° 0 mm 6 mps 738 mmHg 81%
    11:00 -13°C° 0 mm 7 mps 739 mmHg 81%
    12:00 -12°C° 0 mm 7 mps 740 mmHg 81%
    13:00 -13°C° 0 mm 7 mps 741 mmHg 81%
    14:00 -12°C° 0 mm 6 mps 741 mmHg 81%
    15:00 -12°C° 0 mm 5 mps 742 mmHg 81%
    16:00 -13°C° 0 mm 5 mps 742 mmHg 83%
    17:00 -14°C° 0 mm 5 mps 743 mmHg 85%
    18:00 -14°C° 0 mm 4 mps 743 mmHg 86%
    19:00 -14°C° 0 mm 4 mps 743 mmHg 87%
    20:00 -12°C° 0 mm 4 mps 743 mmHg 88%
    21:00 -12°C° 0 mm 4 mps 744 mmHg 89%
    22:00 -12°C° 0 mm 4 mps 744 mmHg 90%
    23:00 -12°C° 0 mm 4 mps 744 mmHg 90%

    24 Noviembre, Sábado

    Tiempo Temperatura Precipitaciones Viento Presión Humedad
    00:00 -12°C° 0 mm 4 mps 744 mmHg 90%
    01:00 -12°C° 0 mm 4 mps 743 mmHg 90%
    02:00 -12°C° 0 mm 4 mps 743 mmHg 90%
    03:00 -12°C° 0 mm 4 mps 743 mmHg 90%
    04:00 -13°C° 0 mm 5 mps 743 mmHg 91%
    05:00 -13°C° 0 mm 5 mps 742 mmHg 91%
    06:00 -12°C° 0 mm 5 mps 742 mmHg 92%
    07:00 -12°C° 0 mm 6 mps 742 mmHg 91%
    08:00 -11°C° 0 mm 6 mps 741 mmHg 91%
    09:00 -11°C° 0 mm 6 mps 741 mmHg 90%
    10:00 -11°C° 0.1 mm 7 mps 741 mmHg 88%
    11:00 -11°C° 0.1 mm 7 mps 740 mmHg 87%
    12:00 -9°C° 0.1 mm 7 mps 740 mmHg 85%
    13:00 -8°C° 0.1 mm 7 mps 739 mmHg 85%
    14:00 -8°C° 0.1 mm 7 mps 739 mmHg 85%
    15:00 -7°C° 0.1 mm 7 mps 739 mmHg 85%
    16:00 -7°C° 0 mm 7 mps 739 mmHg 84%
    17:00 -7°C° 0 mm 7 mps 739 mmHg 84%
    18:00 -7°C° 0 mm 7 mps 738 mmHg 84%
    19:00 -6°C° 0 mm 6 mps 738 mmHg 85%
    20:00 -6°C° 0 mm 6 mps 738 mmHg 86%
    21:00 -6°C° 0 mm 6 mps 738 mmHg 86%
    22:00 -6°C° 0.1 mm 6 mps 738 mmHg 87%
    23:00 -6°C° 0.1 mm 6 mps 738 mmHg 87%

    25 Noviembre, Domingo

    Tiempo Temperatura Precipitaciones Viento Presión Humedad
    00:00 -6°C° 0.1 mm 6 mps 738 mmHg 88%
    01:00 -6°C° 0.1 mm 6 mps 738 mmHg 88%
    02:00 -6°C° 0.1 mm 6 mps 738 mmHg 88%
    03:00 -6°C° 0.1 mm 6 mps 738 mmHg 89%
    04:00 -6°C° 0.1 mm 6 mps 738 mmHg 88%
    05:00 -6°C° 0.1 mm 6 mps 738 mmHg 87%
    06:00 -6°C° 0.1 mm 6 mps 738 mmHg 86%
    07:00 -6°C° 0 mm 6 mps 739 mmHg 86%
    08:00 -8°C° 0 mm 6 mps 740 mmHg 87%
    09:00 -7°C° 0 mm 5 mps 741 mmHg 87%
    10:00 -7°C° 0 mm 5 mps 741 mmHg 88%
    11:00 -7°C° 0 mm 4 mps 742 mmHg 88%
    12:00 -7°C° 0 mm 4 mps 742 mmHg 89%
    13:00 -8°C° 0 mm 4 mps 742 mmHg 90%
    14:00 -7°C° 0 mm 3 mps 743 mmHg 91%
    15:00 -8°C° 0 mm 3 mps 743 mmHg 92%
    16:00 -8°C° 0 mm 3 mps 743 mmHg 93%
    17:00 -9°C° 0 mm 3 mps 743 mmHg 94%
    18:00 -9°C° 0 mm 3 mps 743 mmHg 94%
    19:00 -7°C° 0 mm 2 mps 743 mmHg 94%
    20:00 -7°C° 0 mm 2 mps 743 mmHg 94%
    21:00 -6°C° 0 mm 2 mps 743 mmHg 94%
    22:00 -7°C° 0 mm 2 mps 743 mmHg 94%
    23:00 -7°C° 0 mm 2 mps 743 mmHg 95%

    26 Noviembre, Lunes

    Tiempo Temperatura Precipitaciones Viento Presión Humedad
    00:00 -7°C° 0 mm 2 mps 743 mmHg 95%
    01:00 -7°C° 0 mm 2 mps 742 mmHg 95%
    02:00 -8°C° 0 mm 2 mps 742 mmHg 96%
    03:00 -8°C° 0 mm 2 mps 742 mmHg 96%
    04:00 -8°C° 0 mm 2 mps 741 mmHg 96%
    05:00 -8°C° 0 mm 2 mps 740 mmHg 95%
    06:00 -8°C° 0 mm 2 mps 740 mmHg 95%
    07:00 -7°C° 0.1 mm 2 mps 740 mmHg 95%
    08:00 -7°C° 0.1 mm 2 mps 739 mmHg 96%
    09:00 -7°C° 0.1 mm 2 mps 739 mmHg 96%
    10:00 -6°C° 0.3 mm 2 mps 738 mmHg 96%
    11:00 -6°C° 0.3 mm 2 mps 738 mmHg 96%
    12:00 -6°C° 0.3 mm 2 mps 737 mmHg 95%
    13:00 -7°C° 0.3 mm 3 mps 737 mmHg 96%
    14:00 -7°C° 0.3 mm 3 mps 736 mmHg 96%
    15:00 -7°C° 0.3 mm 3 mps 736 mmHg 96%
    16:00 -7°C° 0.2 mm 3 mps 735 mmHg 96%
    17:00 -7°C° 0.2 mm 3 mps 735 mmHg 96%
    18:00 -8°C° 0.2 mm 3 mps 735 mmHg 96%
    19:00 -8°C° 0.1 mm 3 mps 735 mmHg 96%
    20:00 -8°C° 0.1 mm 3 mps 734 mmHg 96%
    21:00 -8°C° 0.1 mm 3 mps 734 mmHg 95%
    22:00 -9°C° 0.1 mm 4 mps 734 mmHg 95%
    23:00 -10°C° 0.1 mm 4 mps 734 mmHg 95%
    Mostrar más